Time,TemperatureF,DewpointF,PressureIn,WindDirection,WindDirectionDegrees,WindSpeedMPH,WindSpeedGustMPH,Humidity,HourlyPrecipIn,Conditions,Clouds,dailyrainin,SoftwareType,DateUTC
2013-04-07 00:36:00,25.9,14.7,30.34,South,180,0.0,-999.0,62,-99.99,,,0.00,Acu-Link.com,2013-04-07 04:36:00,
2013-04-07 00:51:00,25.7,14.9,30.34,SSW,202,0.0,-999.0,63,-99.99,,,0.00,Acu-Link.com,2013-04-07 04:51:00,
2013-04-07 01:22:00,24.8,13.3,30.34,WNW,292,0.0,-999.0,61,-99.99,,,0.00,Acu-Link.com,2013-04-07 05:22:00,
2013-04-07 01:37:00,24.6,14.5,30.33,WNW,292,0.0,-999.0,65,-99.99,,,0.00,Acu-Link.com,2013-04-07 05:37:00,
2013-04-07 02:07:00,24.4,15.4,30.31,WNW,292,0.0,-999.0,68,-99.99,,,0.00,Acu-Link.com,2013-04-07 06:07:00,
2013-04-07 02:22:00,24.1,16.1,30.31,WNW,292,0.0,-999.0,71,-99.99,,,0.00,Acu-Link.com,2013-04-07 06:22:00,
2013-04-07 02:38:00,23.9,15.2,30.30,WNW,292,0.0,-999.0,69,-99.99,,,0.00,Acu-Link.com,2013-04-07 06:38:00,
2013-04-07 02:53:00,23.2,15.5,30.30,WNW,292,0.0,-999.0,72,-99.99,,,0.00,Acu-Link.com,2013-04-07 06:53:00,
2013-04-07 03:08:00,24.4,16.4,30.31,SW,225,0.0,-999.0,71,-99.99,,,0.00,Acu-Link.com,2013-04-07 07:08:00,
2013-04-07 03:23:00,23.5,15.2,30.30,SW,225,0.0,-999.0,70,-99.99,,,0.00,Acu-Link.com,2013-04-07 07:23:00,
2013-04-07 03:38:00,22.8,15.5,30.30,SW,225,0.0,-999.0,73,-99.99,,,0.00,Acu-Link.com,2013-04-07 07:38:00,
2013-04-07 03:54:00,22.5,16.7,30.29,SW,225,0.0,-999.0,78,-99.99,,,0.00,Acu-Link.com,2013-04-07 07:54:00,
2013-04-07 04:09:00,23.7,18.7,30.28,West,270,0.0,-999.0,81,-99.99,,,0.00,Acu-Link.com,2013-04-07 08:09:00,
2013-04-07 04:24:00,24.1,18.8,30.28,NE,45,0.0,-999.0,80,-99.99,,,0.00,Acu-Link.com,2013-04-07 08:24:00,
2013-04-07 04:39:00,23.2,17.7,30.29,NE,45,0.0,-999.0,79,-99.99,,,0.00,Acu-Link.com,2013-04-07 08:39:00,
2013-04-07 04:55:00,23.0,19.2,30.29,West,270,0.0,-999.0,85,-99.99,,,0.00,Acu-Link.com,2013-04-07 08:55:00,
2013-04-07 05:10:00,23.5,19.4,30.29,SE,135,0.0,-999.0,84,-99.99,,,0.00,Acu-Link.com,2013-04-07 09:10:00,
2013-04-07 05:25:00,23.2,19.4,30.29,SE,135,0.0,-999.0,85,-99.99,,,0.00,Acu-Link.com,2013-04-07 09:25:00,
2013-04-07 05:40:00,23.5,19.9,30.29,West,270,0.0,-999.0,86,-99.99,,,0.00,Acu-Link.com,2013-04-07 09:40:00,
2013-04-07 05:55:00,23.0,19.4,30.29,SSE,157,0.0,-999.0,86,-99.99,,,0.00,Acu-Link.com,2013-04-07 09:55:00,
2013-04-07 06:10:00,22.8,19.3,30.30,SSE,157,0.0,-999.0,86,-99.99,,,0.00,Acu-Link.com,2013-04-07 10:10:00,
2013-04-07 06:41:00,23.9,21.1,30.31,SE,135,2.2,-999.0,89,-99.99,,,0.00,Acu-Link.com,2013-04-07 10:41:00,
2013-04-07 06:56:00,24.8,21.2,30.31,SSE,157,0.0,-999.0,86,-99.99,,,0.00,Acu-Link.com,2013-04-07 10:56:00,
2013-04-07 07:11:00,26.1,21.7,30.31,ESE,112,0.0,-999.0,83,-99.99,,,0.00,Acu-Link.com,2013-04-07 11:11:00,
2013-04-07 07:26:00,29.1,22.5,30.32,SSE,157,0.0,-999.0,76,-99.99,,,0.00,Acu-Link.com,2013-04-07 11:26:00,
2013-04-07 07:42:00,33.6,23.8,30.32,East,90,0.0,-999.0,67,-99.99,,,0.00,Acu-Link.com,2013-04-07 11:42:00,
2013-04-07 07:57:00,35.4,22.5,30.32,WSW,247,1.1,-999.0,59,-99.99,,,0.00,Acu-Link.com,2013-04-07 11:57:00,
2013-04-07 08:12:00,36.5,21.5,30.31,SSE,157,1.1,-999.0,54,-99.99,,,0.00,Acu-Link.com,2013-04-07 12:12:00,
2013-04-07 08:27:00,36.9,22.3,30.31,West,270,1.1,-999.0,55,-99.99,,,0.00,Acu-Link.com,2013-04-07 12:27:00,
2013-04-07 08:42:00,37.4,21.4,30.30,SE,135,1.7,-999.0,52,-99.99,,,0.00,Acu-Link.com,2013-04-07 12:42:00,
2013-04-07 08:58:00,37.8,21.8,30.29,SE,135,2.2,-999.0,52,-99.99,,,0.00,Acu-Link.com,2013-04-07 12:58:00,
2013-04-07 09:13:00,41.2,23.0,30.29,SSE,157,1.1,-999.0,48,-99.99,,,0.00,Acu-Link.com,2013-04-07 13:13:00,
2013-04-07 09:28:00,43.0,22.6,30.27,SSW,202,2.2,-999.0,44,-99.99,,,0.00,Acu-Link.com,2013-04-07 13:28:00,
2013-04-07 09:43:00,44.8,21.4,30.26,ESE,112,4.7,-999.0,39,-99.99,,,0.00,Acu-Link.com,2013-04-07 13:43:00,
2013-04-07 10:29:00,49.1,23.3,30.24,West,270,2.7,-999.0,36,-99.99,,,0.00,Acu-Link.com,2013-04-07 14:29:00,
2013-04-07 10:44:00,48.0,21.7,30.23,SSE,157,3.7,-999.0,35,-99.99,,,0.00,Acu-Link.com,2013-04-07 14:44:00,
2013-04-07 10:59:00,48.7,21.6,30.22,WNW,292,2.7,-999.0,34,-99.99,,,0.00,Acu-Link.com,2013-04-07 14:59:00,
2013-04-07 11:14:00,48.0,22.3,30.22,SSW,202,4.2,-999.0,36,-99.99,,,0.00,Acu-Link.com,2013-04-07 15:14:00,
2013-04-07 11:30:00,47.5,23.2,30.21,NW,315,2.7,-999.0,38,-99.99,,,0.00,Acu-Link.com,2013-04-07 15:30:00,
2013-04-07 12:00:00,51.8,20.6,30.18,SW,225,4.7,-999.0,29,-99.99,,,0.00,Acu-Link.com,2013-04-07 16:00:00,
2013-04-07 12:31:00,52.3,21.8,30.15,South,180,9.4,-999.0,30,-99.99,,,0.00,Acu-Link.com,2013-04-07 16:31:00,
2013-04-07 12:46:00,52.2,23.2,30.15,ESE,112,12.5,-999.0,32,-99.99,,,0.00,Acu-Link.com,2013-04-07 16:46:00,
2013-04-07 13:16:00,53.8,23.1,30.11,ESE,112,4.2,-999.0,30,-99.99,,,0.00,Acu-Link.com,2013-04-07 17:16:00,
2013-04-07 13:31:00,56.1,22.6,30.09,ESE,112,3.7,-999.0,27,-99.99,,,0.00,Acu-Link.com,2013-04-07 17:31:00,
2013-04-07 13:47:00,58.3,21.7,30.09,WNW,292,8.3,-999.0,24,-99.99,,,0.00,Acu-Link.com,2013-04-07 17:47:00,
2013-04-07 14:02:00,57.4,22.8,30.08,WSW,247,11.4,-999.0,26,-99.99,,,0.00,Acu-Link.com,2013-04-07 18:02:00,
2013-04-07 14:32:00,59.7,27.4,30.07,West,270,2.2,-999.0,29,-99.99,,,0.00,Acu-Link.com,2013-04-07 18:32:00,
2013-04-07 14:47:00,57.7,27.3,30.05,NNW,337,3.2,-999.0,31,-99.99,,,0.00,Acu-Link.com,2013-04-07 18:47:00,
2013-04-07 15:03:00,57.9,27.5,30.04,South,180,8.3,-999.0,31,-99.99,,,0.00,Acu-Link.com,2013-04-07 19:03:00,
2013-04-07 15:18:00,57.0,27.4,30.04,ESE,112,4.2,-999.0,32,-99.99,,,0.00,Acu-Link.com,2013-04-07 19:18:00,
2013-04-07 15:33:00,58.6,28.8,30.03,WSW,247,5.8,-999.0,32,-99.99,,,0.00,Acu-Link.com,2013-04-07 19:33:00,
2013-04-07 16:19:00,57.9,31.1,30.01,SSE,157,8.3,-999.0,36,-99.99,,,0.00,Acu-Link.com,2013-04-07 20:19:00,
2013-04-07 16:34:00,55.9,30.7,30.00,SSW,202,6.8,-999.0,38,-99.99,,,0.00,Acu-Link.com,2013-04-07 20:34:00,
2013-04-07 16:49:00,55.6,31.7,29.99,ESE,112,3.2,-999.0,40,-99.99,,,0.00,Acu-Link.com,2013-04-07 20:49:00,
2013-04-07 17:04:00,55.2,31.9,29.98,South,180,6.3,-999.0,41,-99.99,,,0.00,Acu-Link.com,2013-04-07 21:04:00,
2013-04-07 17:35:00,54.0,32.6,29.98,East,90,5.3,-999.0,44,-99.99,,,0.00,Acu-Link.com,2013-04-07 21:35:00,
2013-04-07 18:05:00,52.7,32.0,29.99,SW,225,11.9,-999.0,45,-99.99,,,0.00,Acu-Link.com,2013-04-07 22:05:00,
2013-04-07 18:20:00,52.2,32.1,30.00,WSW,247,4.7,-999.0,46,-99.99,,,0.00,Acu-Link.com,2013-04-07 22:20:00,
2013-04-07 18:36:00,51.3,32.3,30.01,ESE,112,10.9,-999.0,48,-99.99,,,0.00,Acu-Link.com,2013-04-07 22:36:00,
2013-04-07 18:51:00,50.9,32.4,30.01,SSE,157,5.3,-999.0,49,-99.99,,,0.00,Acu-Link.com,2013-04-07 22:51:00,
2013-04-07 19:06:00,50.5,32.6,29.99,SSW,202,6.3,-999.0,50,-99.99,,,0.00,Acu-Link.com,2013-04-07 23:06:00,
2013-04-07 19:21:00,50.2,32.3,29.99,SE,135,3.7,-999.0,50,-99.99,,,0.00,Acu-Link.com,2013-04-07 23:21:00,
2013-04-07 19:52:00,49.1,33.2,30.02,SSW,202,3.7,-999.0,54,-99.99,,,0.00,Acu-Link.com,2013-04-07 23:52:00,
2013-04-07 20:07:00,48.4,33.4,30.01,SW,225,3.7,-999.0,56,-99.99,,,0.00,Acu-Link.com,2013-04-08 00:07:00,
2013-04-07 20:22:00,48.0,34.4,30.02,East,90,3.7,-999.0,59,-99.99,,,0.00,Acu-Link.com,2013-04-08 00:22:00,
2013-04-07 20:37:00,46.9,34.6,30.01,SSW,202,3.2,-999.0,62,-99.99,,,0.00,Acu-Link.com,2013-04-08 00:37:00,
2013-04-07 20:53:00,46.9,35.4,30.01,ESE,112,6.8,-999.0,64,-99.99,,,0.00,Acu-Link.com,2013-04-08 00:53:00,
2013-04-07 21:08:00,46.6,35.9,30.00,West,270,3.2,-999.0,66,-99.99,,,0.00,Acu-Link.com,2013-04-08 01:08:00,
2013-04-07 21:23:00,46.4,36.0,30.01,West,270,5.8,-999.0,67,-99.99,,,0.00,Acu-Link.com,2013-04-08 01:23:00,
2013-04-07 21:38:00,46.2,36.6,30.00,SSE,157,2.7,-999.0,69,-99.99,,,0.00,Acu-Link.com,2013-04-08 01:38:00,
2013-04-07 21:53:00,45.9,37.0,30.00,ENE,67,3.2,-999.0,71,-99.99,,,0.00,Acu-Link.com,2013-04-08 01:53:00,
2013-04-07 22:39:00,45.3,37.2,29.99,South,180,2.2,-999.0,73,-99.99,,,0.00,Acu-Link.com,2013-04-08 02:39:00,
2013-04-07 23:09:00,44.6,37.5,29.99,WSW,247,2.2,-999.0,76,-99.99,,,0.00,Acu-Link.com,2013-04-08 03:09:00,
2013-04-07 23:25:00,44.6,37.5,29.99,SE,135,2.7,-999.0,76,-99.99,,,0.00,Acu-Link.com,2013-04-08 03:25:00,
2013-04-07 23:40:00,44.4,37.6,29.98,West,270,2.7,-999.0,77,-99.99,,,0.00,Acu-Link.com,2013-04-08 03:40:00,